TimeCST,TemperatureF,Dew PointF,Humidity,Sea Level PressureIn,VisibilityMPH,Wind Direction,Wind SpeedMPH,Gust SpeedMPH,PrecipitationIn,Events,Conditions,WindDirDegrees,DateUTC
12:50 AM,50.0,48.2,94,30.24,10.0,Calm,Calm,-,N/A,,Scattered Clouds,0,2012-12-03 06:50:00
12:58 AM,50.0,48.9,96,30.23,10.0,Calm,Calm,-,N/A,,Scattered Clouds,0,2012-12-03 06:58:00
1:33 AM,48.2,48.2,100,30.24,1.8,Calm,Calm,-,N/A,,Clear,0,2012-12-03 07:33:00
1:43 AM,48.2,48.2,100,30.24,3.0,Calm,Calm,-,N/A,,Clear,0,2012-12-03 07:43:00
1:56 AM,48.2,46.4,93,30.23,7.0,Calm,Calm,-,N/A,,Scattered Clouds,0,2012-12-03 07:56:00
1:58 AM,48.0,46.9,96,30.23,7.0,Calm,Calm,-,N/A,,Scattered Clouds,0,2012-12-03 07:58:00
2:05 AM,48.2,48.2,100,30.23,6.0,Calm,Calm,-,N/A,,Mostly Cloudy,0,2012-12-03 08:05:00
2:11 AM,48.2,46.4,93,30.23,2.5,Calm,Calm,-,N/A,,Scattered Clouds,0,2012-12-03 08:11:00
2:14 AM,46.4,46.4,100,30.23,1.2,Calm,Calm,-,N/A,,Mostly Cloudy,0,2012-12-03 08:14:00
2:17 AM,46.4,46.4,100,30.23,0.8,Calm,Calm,-,N/A,,Mist,0,2012-12-03 08:17:00
2:42 AM,48.2,46.4,93,30.22,2.5,Calm,Calm,-,N/A,,Overcast,0,2012-12-03 08:42:00
2:54 AM,46.4,46.4,100,30.23,10.0,Calm,Calm,-,N/A,,Overcast,0,2012-12-03 08:54:00
2:58 AM,46.0,46.0,100,30.22,10.0,Calm,Calm,-,N/A,,Overcast,0,2012-12-03 08:58:00
3:10 AM,46.4,44.6,93,30.23,2.0,Calm,Calm,-,N/A,,Overcast,0,2012-12-03 09:10:00
3:18 AM,46.4,44.6,93,30.23,5.0,Calm,Calm,-,N/A,,Overcast,0,2012-12-03 09:18:00
3:21 AM,46.4,44.6,93,30.23,1.8,Calm,Calm,-,N/A,,Overcast,0,2012-12-03 09:21:00
3:31 AM,46.4,46.4,100,30.23,0.5,Calm,Calm,-,N/A,Fog,Fog,0,2012-12-03 09:31:00
3:39 AM,46.4,46.4,100,30.23,2.5,Calm,Calm,-,N/A,,Overcast,0,2012-12-03 09:39:00
3:46 AM,46.4,46.4,100,30.23,9.0,Calm,Calm,-,N/A,,Overcast,0,2012-12-03 09:46:00
3:58 AM,46.0,45.0,96,30.22,6.0,Calm,Calm,-,N/A,,Overcast,0,2012-12-03 09:58:00
4:05 AM,46.4,44.6,93,30.23,2.5,Calm,Calm,-,N/A,,Overcast,0,2012-12-03 10:05:00
4:08 AM,46.4,44.6,93,30.23,0.8,Calm,Calm,-,N/A,,Mist,0,2012-12-03 10:08:00
4:18 AM,46.4,46.4,100,30.23,0.2,Calm,Calm,-,N/A,Fog,Fog,0,2012-12-03 10:18:00
4:27 AM,46.4,46.4,100,30.23,0.8,Calm,Calm,-,N/A,,Overcast,0,2012-12-03 10:27:00
4:33 AM,44.6,44.6,100,30.23,2.0,Calm,Calm,-,N/A,,Overcast,0,2012-12-03 10:33:00
4:43 AM,44.6,44.6,100,30.23,1.0,Calm,Calm,-,N/A,,Overcast,0,2012-12-03 10:43:00
4:46 AM,44.6,44.6,100,30.23,0.8,Calm,Calm,-,N/A,,Mist,0,2012-12-03 10:46:00
4:58 AM,45.0,45.0,100,30.23,0.5,Calm,Calm,-,N/A,Fog,Fog,0,2012-12-03 10:58:00
5:20 AM,44.6,44.6,100,30.24,0.2,Calm,Calm,-,N/A,Fog,Fog,0,2012-12-03 11:20:00
5:28 AM,44.6,44.6,100,30.24,0.2,Calm,Calm,-,N/A,Fog,Fog,0,2012-12-03 11:28:00
5:36 AM,44.6,44.6,100,30.24,0.8,Calm,Calm,-,N/A,,Mist,0,2012-12-03 11:36:00
5:47 AM,44.6,44.6,100,30.24,0.5,Calm,Calm,-,N/A,Fog,Fog,0,2012-12-03 11:47:00
5:58 AM,46.0,46.0,100,30.24,0.5,Calm,Calm,-,N/A,Fog,Fog,0,2012-12-03 11:58:00
6:04 AM,44.6,44.6,100,30.24,0.2,Calm,Calm,-,N/A,Fog,Fog,0,2012-12-03 12:04:00
6:15 AM,44.6,44.6,100,30.24,0.5,Calm,Calm,-,N/A,Fog,Fog,0,2012-12-03 12:15:00
6:22 AM,44.6,44.6,100,30.24,0.8,Calm,Calm,-,N/A,,Mist,0,2012-12-03 12:22:00
6:54 AM,44.6,44.6,100,30.25,0.2,Calm,Calm,-,N/A,Fog,Fog,0,2012-12-03 12:54:00
6:55 AM,45.0,45.0,100,30.25,0.2,Calm,Calm,-,N/A,Fog,Fog,0,2012-12-03 12:55:00
7:14 AM,46.4,46.4,100,30.25,0.8,Calm,Calm,-,N/A,,Overcast,0,2012-12-03 13:14:00
7:27 AM,46.4,46.4,100,30.25,0.2,Calm,Calm,-,N/A,Fog,Fog,0,2012-12-03 13:27:00
7:58 AM,48.9,48.9,100,30.26,0.2,Calm,Calm,-,N/A,Fog,Fog,0,2012-12-03 13:58:00
8:58 AM,55.0,55.0,100,30.27,0.2,Calm,Calm,-,N/A,Fog,Fog,0,2012-12-03 14:58:00
9:24 AM,57.2,57.2,100,30.27,0.5,Calm,Calm,-,N/A,Fog,Fog,0,2012-12-03 15:24:00
9:44 AM,60.8,60.8,100,30.27,2.0,SSW,3.5,-,N/A,,Overcast,200,2012-12-03 15:44:00
9:58 AM,61.0,60.1,97,30.27,8.0,SSW,4.6,-,N/A,,Overcast,200,2012-12-03 15:58:00
10:06 AM,60.8,60.8,100,30.27,9.0,SSW,5.8,-,N/A,,Scattered Clouds,200,2012-12-03 16:06:00
10:58 AM,69.1,60.1,73,30.24,10.0,SSW,11.5,-,N/A,,Clear,200,2012-12-03 16:58:00
11:58 AM,70.0,59.0,68,30.22,10.0,SSW,5.8,-,N/A,,Scattered Clouds,200,2012-12-03 17:58:00
12:58 PM,73.0,57.0,57,30.18,10.0,SSE,9.2,-,N/A,,Partly Cloudy,160,2012-12-03 18:58:00
1:58 PM,73.9,57.0,55,30.17,10.0,South,11.5,-,N/A,,Scattered Clouds,180,2012-12-03 19:58:00
2:58 PM,73.0,55.9,55,30.16,10.0,SSE,11.5,-,N/A,,Scattered Clouds,160,2012-12-03 20:58:00
3:58 PM,70.0,57.9,65,30.17,10.0,SSE,6.9,-,N/A,,Partly Cloudy,150,2012-12-03 21:58:00
4:58 PM,66.9,59.0,76,30.17,10.0,SE,3.5,-,N/A,,Clear,140,2012-12-03 22:58:00
5:58 PM,64.9,59.0,81,30.17,10.0,SE,4.6,-,N/A,,Clear,140,2012-12-03 23:58:00
6:58 PM,59.0,57.0,93,30.19,10.0,Calm,Calm,-,N/A,,Clear,0,2012-12-04 00:58:00
7:58 PM,57.0,55.9,96,30.19,10.0,Calm,Calm,-,N/A,,Partly Cloudy,0,2012-12-04 01:58:00
8:58 PM,59.0,57.0,93,30.19,10.0,South,6.9,-,N/A,,Clear,190,2012-12-04 02:58:00
9:58 PM,57.9,57.0,97,30.19,10.0,SSW,4.6,-,N/A,,Mostly Cloudy,210,2012-12-04 03:58:00
10:58 PM,57.9,57.0,97,30.19,10.0,SSW,6.9,-,N/A,,Clear,200,2012-12-04 04:58:00
11:58 PM,60.1,59.0,96,30.19,10.0,South,5.8,-,N/A,,Scattered Clouds,190,2012-12-04 05:58:00